{"data":{"norad_id":65362,"intl_designator":"2025-190M","name":"STARLINK-34817","alt_names":[],"object_type":"PAYLOAD","status":"ACTIVE","operator":null,"country":"US","launch_date":"2025-08-28","launch_site_code":"AFETR","launch_vehicle":null,"mission":null,"orbit_class":"UNKNOWN","rcs_meters":null,"size_class":null,"mass_kg":null,"dimensions":null,"purposes":["comms"],"wikipedia_slug":null,"has_3d_model":false,"image_url":null,"decayed_at":null,"tle_current":{"epoch":"2026-05-25T01:28:21.313920Z","epoch_age_seconds":63645,"freshness":"FRESH","line1":"1 65362U 25190M   26145.06135780  .00019723  00000+0  59313-3 0  9992","line2":"2 65362  53.1596 173.0422 0001441  85.4070 274.7097 15.34410582 41459","mean_motion":15.34410582,"eccentricity":0.0001441,"inclination_deg":53.1596,"raan_deg":173.0422,"arg_perigee_deg":85.407,"mean_anomaly_deg":274.7097,"bstar":0.00059313,"rev_number":4145,"period_min":93.847110864099,"perigee_km":461.68602790739,"apogee_km":463.65754900022,"semimajor_km":6840.8087884538,"source":"CELESTRAK","updated_at":"2026-05-25T13:38:20.767164Z"}}}